Regional Weather Roundup
Issued by NWS Jackson, KY

Home | Current Version | Previous Version | Graphics & Text | Print | Product List | Glossary On
Versions: 1 2 3 4 5 6 7 8 9 10 11 12 13 14 15 16 17 18 19 20 21 22 23 24 25 26 27
000
ASUS43 KJKL 190510
RWRJKL

EAST KENTUCKY HOURLY WEATHER ROUNDUP
NATIONAL WEATHER SERVICE JACKSON KY
100 AM EDT TUE SEP 19 2017

NOTE: "FAIR" INDICATES FEW OR NO CLOUDS BELOW 12,000 FEET WITH
NO SIGNIFICANT WEATHER AND/OR OBSTRUCTIONS TO VISIBILITY.

* THESE REPORTS ARE NOT UNDER NWS QUALITY CONTROL AND MAY NOT
  REPORT WEATHER SUCH AS PRECIPITATION AND FOG.

KYZ079-080-083-085-087-088-110-112-115-119-120-190600
...EASTERN KENTUCKY...

CITY           SKY/WX    TMP DP  RH WIND       PRES   REMARKS
JACKSON        CLEAR     67  60  78 CALM      30.05F
LONDON         PTCLDY    65  64  97 CALM      30.04S FOG
SOMERSET*      CLOUDY    64  64 100 CALM      30.03F
MONTICELLO*    CLOUDY    65  64  97 W3        30.04F
WILLIAMSBURG*  CLEAR     66  66 100 SE3       30.04F
MIDDLESBORO*   CLEAR     64  64 100 CALM      30.07S
HARLAN APT*    PTCLDY    61  59  94 CALM      30.07S
PIKE CO APT*     N/A     65  65 100 S5        30.06F
BIG SANDY APT* CLEAR     64  64 100 CALM      30.04F
MOREHEAD APT*  CLOUDY    68  64  88 SE3       30.04F
$$

KYZ035-036-041-042-044-050-067-078-099-190600
...CENTRAL KENTUCKY...

CITY           SKY/WX    TMP DP  RH WIND       PRES   REMARKS
MT STERLING*   CLOUDY    68  64  88 S5        30.04S
FLEMING/MASON* CLOUDY    67  65  92 SE5       30.03F
DANVILLE*      CLOUDY    68  66  94 CALM      30.03F
LEXINGTON      CLOUDY    72  66  81 SE5       30.01F
FRANKFORT      MOCLDY    74  65  73 S7        29.99S
LOUISVILLE     CLOUDY    75  70  84 CALM      29.98S
LEBANON*         N/A     72  68  88 SE3       30.01F
GLASGOW*       PTCLDY   N/A N/A N/A E3        30.00F FOG
BOWLING GREEN  PTCLDY    68  68 100 CALM      29.99F FOG
$$

KYZ091>093-OHZ055-061-077-WVZ005-015-034-035-042-190600
...SOUTHERN OHIO/WEST VIRGINIA...

CITY           SKY/WX    TMP DP  RH WIND       PRES   REMARKS
COVINGTON      MOCLDY    70  67  90 S5        30.00F
COLUMBUS       CLOUDY    71  67  87 CALM      30.01F
DAYTON         MOCLDY    66  66 100 SE3       30.01F FOG
WILMINGTON     CLOUDY    69  66  90 CALM      30.01F
HUNTINGTON     CLOUDY    67  65  93 CALM      30.02F
CHARLESTON     PTCLDY    65  62  90 CALM      30.03F
PINEVILLE*     PTCLDY    63  62  95 MISG      30.12F FOG
BECKLEY        CLEAR     61  59  93 CALM      30.11F
BLUEFIELD      MOCLDY    62  58  86 CALM      30.13F
LOGAN CO APT*    N/A     64  64 100 CALM      30.06F
$$

VAZ002-007-008-TNZ017-027-036-066-071-190600
...SOUTHWEST VIRGINIA/EAST TENNESSEE...

CITY           SKY/WX    TMP DP  RH WIND       PRES   REMARKS
WISE*          CLEAR     63  55  77 CALM      30.12F
JONESVILLE*      N/A     59  59 100 CALM      30.08S
ABINGDON*      CLEAR     62  60  93 CALM      30.09F
BRISTOL        CLEAR     60  59  96 CALM      30.06F
MORRISTOWN*    CLEAR     66  61  82 CALM      30.04S
SEVIERVILLE*   CLEAR     63  61  94 CALM      30.03S
KNOXVILLE      CLEAR     69  63  81 NE3       30.02F
LAFOLLETTE*    CLEAR     64  64 100 CALM      30.07F FOG
OAK RIDGE      CLEAR     67  64  90 CALM      30.04S
CROSSVILLE     CLEAR     64  62  93 CALM      30.07S
NASHVILLE      PTCLDY    70  67  90 CALM      30.00S
$$

...KEY TO REMARKS...
VSB - VISIBILITY IN MILES
WCI - WIND CHILL INDEX
HX  - HEAT INDEX

$$




USA.gov is the U.S. government's official web portal to all federal, state and local government web resources and services.